FENGYUN 1C DEB

Satellite information

Favourite Embed

Satellite Type and Status

DEBRISIN ORBIT

Key statistics

Satellite FENGYUN 1C DEB at a glance.

Uptime

9556

Days in orbit

Revolutions

≈ 14.0

Per day

Orbit

SSO

Sun Synchronous Orbit

Inclination

98.7

Latest

Satellite identification and parameters

Extended collection of information and parameters for FENGYUN 1C DEB.

Object identification

Identified? True

Debris? True

Object name: FENGYUN 1C DEB

International designator: 1999-025BG

Object number (NORAD): 29766

Object ID (CCSDS): 29766

Country: PEOPLES REPUBLIC OF CHINA (PRC)

Current information (Y/N): Y

RCS size: SMALL

Orbital parameters

Period: 103.13 minutes

Inclination: 98.6694 deg

SMA: 7284.775 km

Apoapsis: 1015.276 km

Periapsis: 798.005 km

RAAN: 147.3466 deg

Eccentricy: 0.0149127

Argument of periapsis: 6.8917 deg

Mean anomaly: 22.4706 deg

Mean motion: 13.96299266 rev/day

Mean motion (dot): 0.00001408 rev/day2

B* drag term: 0.00095785 1/REarth

Two-line elements (TLE)

Creation date: July 8, 2025, 2:27 a.m.

Reference frame: TEME

Reference center: EARTH

Epoch: July 7, 2025, 7:55 p.m. UTC

TLE line 0: 0 FENGYUN 1C DEB

TLE line 1: 1 29766U 99025BG 25188.83003182 .00001408 00000-0 95785-3 0 9994

TLE line 2: 2 29766 98.6694 147.3466 0149127 6.8917 22.4706 13.96299266936002

Live tracking on map

Real-time ground track for satellite FENGYUN 1C DEB.

In-orbit conjunctions

A list of the most updated potential collisions computed for object FENGYUN 1C DEB.

Target Orbit TCA Probability of collision Miss distance Type
COSMOS 521 LEO 2025-04-04 10:53:31 0.0001060547 420.0 (m) PAYLOAD
ASTRID LEO 2024-09-09 20:30:20 0.0002120275 943.0 (m) PAYLOAD

Associated space launch

Chinese polar orbiting meteorological satellite

FENGYUN 1C DEB was lifted into orbit during the mission ‘Long March 4B | Feng Yun 1C’, on board a Long March 4B space rocket.

The launch took place on May 10, 1999, 1:33 a.m. from Launch Complex 7.

For more information about the launch, click the button.

Launch to space Long March 4B | Feng Yun 1C
Long March 4B | Feng Yun 1C

Agency: N/A

Status: Launch Successful

Launch date: May 10, 1999, 1:33 a.m. UTC

Rocket: Long March 4B

Launch pad: Launch Complex 7

Location: Taiyuan Satellite Launch Center, People's Republic of China

...

Latest news about this satellite

There are no fresh news available about this satellite. Check back as we update our databases every day.


Newsletter sign-up

Weekly statistics, charts and insights to help you stay on top of the space industry.